Regional Weather Roundup
Issued by NWS Goodland, KS

Home | Current Version | Previous Version | Graphics & Text | Print | Product List | Glossary On
Versions: 1 2 3 4 5 6 7 8 9 10 11 12 13 14 15 16 17 18 19 20 21 22 23 24 25 26 27 28 29 30 31 32 33 34 35 36 37 38 39 40 41 42 43 44 45 46 47 48 49 50
000
ASUS43 KGLD 281859
RWRGLD

GOODLAND FORECAST AREA HOURLY WEATHER ROUNDUP
NATIONAL WEATHER SERVICE GOODLAND KS
100 PM MDT FRI AUG 28 2015

...OFFICIAL OBSERVATIONS...

CITY           SKY/WX    TMP DP  RH WIND       PRES   REMARKS
GOODLAND KS    SUNNY     90  47  22 N17G25    30.05F
HILL CITY KS   SUNNY     89  59  36 NW16G23   29.96F
IMPERIAL NEB   SUNNY     86  55  34 N12       30.04F
MCCOOK NEB     MOSUNNY   85  62  46 N15G25    29.99F
AKRON CO       MOSUNNY   82  52  35 NW13      30.16F
BURLINGTON CO  SUNNY     87  46  24 NW20G28   30.12F
LIMON CO       MOSUNNY   80  48  32 N15G22    30.23F
$$

...UNOFFICIAL OBSERVATIONS...

CITY           SKY/WX    TMP DP  RH WIND       PRES   REMARKS
COLBY KS       SUNNY     91  55  29 NW13G22   30.03S
GOVE KS          N/A     90  32  12 MISG        N/A
LENORA KS        N/A     83  32  16 MISG        N/A
NORTON KS      MOSUNNY   81  57  44 NW15G21   29.97F
SHARON SPRINGS   N/A     88  57  34 NW12G21     N/A
TRENTON NEB      N/A     83  32  16 NW14        N/A
YUMA CO          N/A     86  51  29 N10         N/A
$$


USA.gov is the U.S. government's official web portal to all federal, state and local government web resources and services.